TimeMST,TemperatureF,Dew PointF,Humidity,Sea Level PressureIn,VisibilityMPH,Wind Direction,Wind SpeedMPH,Gust SpeedMPH,PrecipitationIn,Events,Conditions,WindDirDegrees,DateUTC
12:53 AM,32.0,18.0,56,29.37,10.0,South,23.0,28.8,0.00,,Mostly Cloudy,180,2012-11-10 07:53:00
1:53 AM,32.0,14.0,48,29.32,10.0,SSE,16.1,-,N/A,,Partly Cloudy,160,2012-11-10 08:53:00
2:53 AM,32.0,19.0,59,29.28,10.0,SSE,13.8,21.9,0.00,,Overcast,160,2012-11-10 09:53:00
3:53 AM,30.9,21.0,67,29.25,7.0,SSE,16.1,21.9,0.00,Snow,Light Snow,160,2012-11-10 10:53:00
4:12 AM,30.2,23.0,75,29.57,3.0,South,18.4,25.3,0.00,Snow,Light Snow,170,2012-11-10 11:12:00
4:19 AM,30.2,23.0,75,29.57,2.0,SSE,13.8,27.6,0.00,Snow,Light Snow,160,2012-11-10 11:19:00
4:34 AM,30.2,23.0,75,29.56,4.0,South,15.0,23.0,0.00,Snow,Light Snow,170,2012-11-10 11:34:00
4:45 AM,30.2,23.0,75,29.55,7.0,South,18.4,25.3,0.00,Snow,Light Snow,170,2012-11-10 11:45:00
4:53 AM,30.9,21.9,69,29.27,9.0,SSE,16.1,23.0,0.00,Snow,Light Snow,160,2012-11-10 11:53:00
5:13 AM,28.4,24.8,86,29.56,1.8,SSE,17.3,-,0.00,Snow,Light Snow,160,2012-11-10 12:13:00
5:32 AM,28.4,26.6,93,29.56,1.0,SSE,9.2,-,0.02,Snow,Light Snow,160,2012-11-10 12:32:00
5:53 AM,28.0,26.1,92,29.33,1.0,South,4.6,-,0.02,Snow,Light Snow,170,2012-11-10 12:53:00
6:04 AM,28.4,26.6,93,29.58,1.0,NW,5.8,-,0.01,Snow,Light Snow,310,2012-11-10 13:04:00
6:09 AM,26.6,26.6,100,29.59,0.5,SW,8.1,-,0.02,Fog-Snow,Snow,230,2012-11-10 13:09:00
6:22 AM,26.6,24.8,93,29.58,0.2,WNW,5.8,-,0.05,Fog-Snow,Snow,300,2012-11-10 13:22:00
6:32 AM,26.6,24.8,93,29.59,0.5,NW,8.1,-,0.07,Fog-Snow,Snow,310,2012-11-10 13:32:00
6:39 AM,26.6,24.8,93,29.59,1.2,NNW,3.5,-,0.08,Snow,Light Snow,330,2012-11-10 13:39:00
6:44 AM,26.6,24.8,93,29.59,3.0,Calm,Calm,-,0.08,Snow,Light Snow,0,2012-11-10 13:44:00
6:53 AM,26.1,24.1,92,29.36,2.5,North,3.5,-,0.08,Snow,Light Snow,10,2012-11-10 13:53:00
6:57 AM,26.6,24.8,93,29.57,3.0,NNE,4.6,-,0.00,Snow,Light Snow,30,2012-11-10 13:57:00
7:28 AM,26.6,24.8,93,29.57,2.5,NE,4.6,-,0.00,Snow,Light Snow,50,2012-11-10 14:28:00
7:43 AM,26.6,24.8,93,29.58,3.0,East,3.5,-,0.00,Snow,Light Snow,100,2012-11-10 14:43:00
7:53 AM,27.0,24.1,89,29.33,1.8,ENE,5.8,-,0.00,Snow,Light Snow,60,2012-11-10 14:53:00
8:04 AM,26.6,23.0,86,29.57,2.0,Calm,Calm,-,0.00,Snow,Light Snow,0,2012-11-10 15:04:00
8:14 AM,26.6,23.0,86,29.57,1.8,Calm,Calm,-,0.00,Snow,Light Snow,0,2012-11-10 15:14:00
8:21 AM,26.6,24.8,93,29.57,2.5,Calm,Calm,-,0.00,Snow,Light Snow,0,2012-11-10 15:21:00
8:26 AM,26.6,24.8,93,29.57,3.0,Calm,Calm,-,0.00,Snow,Light Snow,0,2012-11-10 15:26:00
8:43 AM,26.6,21.2,80,29.58,1.8,South,15.0,25.3,0.00,Snow,Light Snow,180,2012-11-10 15:43:00
8:53 AM,26.1,21.9,84,29.39,1.0,South,15.0,-,0.00,Snow,Light Snow,170,2012-11-10 15:53:00
9:18 AM,24.8,23.0,93,29.57,0.8,SE,8.1,-,0.00,Snow,Light Snow,130,2012-11-10 16:18:00
9:24 AM,26.6,21.2,80,29.57,2.0,SSE,10.4,-,0.00,Snow,Light Snow,150,2012-11-10 16:24:00
9:27 AM,26.6,21.2,80,29.57,5.0,SSE,10.4,-,0.00,Snow,Light Snow,160,2012-11-10 16:27:00
9:53 AM,26.1,19.9,78,29.35,10.0,South,11.5,-,0.00,,Overcast,170,2012-11-10 16:53:00
10:46 AM,24.8,19.4,80,29.60,1.5,South,15.0,-,0.00,Snow,Light Snow,190,2012-11-10 17:46:00
10:53 AM,24.1,19.9,84,29.41,1.0,South,10.4,-,0.00,Snow,Light Snow,170,2012-11-10 17:53:00
11:07 AM,24.8,19.4,80,29.60,3.0,SSW,11.5,-,0.01,Snow,Light Snow,200,2012-11-10 18:07:00
11:19 AM,23.0,19.4,86,29.59,3.0,South,6.9,-,0.01,Snow,Light Snow,180,2012-11-10 18:19:00
11:53 AM,23.0,17.1,78,29.39,7.0,SSE,13.8,-,0.01,Snow,Light Snow,150,2012-11-10 18:53:00
12:02 PM,23.0,17.6,80,29.57,1.8,South,15.0,20.7,0.00,Snow,Light Snow,170,2012-11-10 19:02:00
12:12 PM,21.2,17.6,86,29.56,1.0,South,16.1,23.0,0.00,Snow,Light Snow,170,2012-11-10 19:12:00
12:39 PM,21.2,15.8,80,29.54,1.2,South,19.6,25.3,0.00,Snow,Light Snow,170,2012-11-10 19:39:00
12:43 PM,21.2,17.6,86,29.55,2.0,South,13.8,26.5,0.00,Snow,Light Snow,170,2012-11-10 19:43:00
12:49 PM,21.2,15.8,80,29.55,4.0,SW,15.0,27.6,0.00,Snow,Light Snow,220,2012-11-10 19:49:00
12:53 PM,21.9,16.0,78,29.39,4.0,WNW,13.8,27.6,0.00,Snow,Light Snow,290,2012-11-10 19:53:00
12:55 PM,21.2,15.8,80,29.56,2.5,WNW,11.5,27.6,0.00,Snow,Light Snow,300,2012-11-10 19:55:00
1:00 PM,21.2,15.8,80,29.56,1.8,NW,10.4,18.4,0.00,Snow,Light Snow,310,2012-11-10 20:00:00
1:04 PM,23.0,15.8,74,29.55,3.0,NW,9.2,-,0.00,Snow,Light Snow,310,2012-11-10 20:04:00
1:12 PM,24.8,12.2,59,29.55,9.0,West,11.5,-,0.00,,Mostly Cloudy,270,2012-11-10 20:12:00
1:53 PM,23.0,1.9,40,29.38,10.0,WSW,15.0,24.2,0.00,,Scattered Clouds,240,2012-11-10 20:53:00
2:53 PM,21.0,1.0,42,29.41,10.0,WNW,12.7,18.4,N/A,,Scattered Clouds,290,2012-11-10 21:53:00
3:53 PM,19.9,-0.0,42,29.44,10.0,West,11.5,16.1,N/A,,Overcast,270,2012-11-10 22:53:00
4:15 PM,15.8,10.4,79,29.62,1.8,WNW,9.2,-,0.00,Snow,Light Snow,300,2012-11-10 23:15:00
4:37 PM,15.8,10.4,79,29.62,2.0,NW,8.1,-,0.00,Snow,Light Snow,320,2012-11-10 23:37:00
4:53 PM,15.1,9.0,77,29.52,2.0,West,8.1,-,0.00,Snow,Light Snow,280,2012-11-10 23:53:00
5:02 PM,15.8,8.6,73,29.63,4.0,NW,5.8,-,0.00,Snow,Light Snow,310,2012-11-11 00:02:00
5:53 PM,12.0,7.0,80,29.58,10.0,NNE,5.8,-,0.00,,Scattered Clouds,30,2012-11-11 00:53:00
6:53 PM,10.9,6.1,81,29.60,10.0,NNE,4.6,-,N/A,,Scattered Clouds,30,2012-11-11 01:53:00
7:53 PM,10.9,5.0,77,29.62,10.0,ENE,4.6,-,N/A,,Overcast,70,2012-11-11 02:53:00
8:48 PM,12.2,6.8,79,29.68,2.5,Calm,Calm,-,0.00,Snow,Light Snow,0,2012-11-11 03:48:00
8:53 PM,12.9,6.1,74,29.61,2.0,NNE,3.5,-,0.00,Snow,Light Snow,30,2012-11-11 03:53:00
9:04 PM,12.2,6.8,79,29.68,7.0,Calm,Calm,-,0.00,Snow,Light Snow,0,2012-11-11 04:04:00
9:53 PM,12.0,3.0,67,29.62,10.0,South,5.8,-,0.00,,Overcast,190,2012-11-11 04:53:00
10:53 PM,8.1,3.9,83,29.65,10.0,East,4.6,-,N/A,,Partly Cloudy,90,2012-11-11 05:53:00
11:53 PM,12.0,-0.0,59,29.62,10.0,SW,5.8,-,N/A,,Mostly Cloudy,230,2012-11-11 06:53:00